TimeAKDT,TemperatureF,Dew PointF,Humidity,Sea Level PressureIn,VisibilityMPH,Wind Direction,Wind SpeedMPH,Gust SpeedMPH,PrecipitationIn,Events,Conditions,WindDirDegrees,DateUTC
12:53 AM,37.0,15.1,41,30.22,10.0,NNE,11.5,-,N/A,,Scattered Clouds,30,2012-10-23 08:53:00
1:53 AM,37.0,15.1,41,30.22,10.0,NNE,6.9,-,N/A,,Clear,30,2012-10-23 09:53:00
2:53 AM,36.0,15.1,43,30.23,10.0,NNE,9.2,18.4,N/A,,Clear,30,2012-10-23 10:53:00
4:53 AM,35.1,15.1,44,30.24,10.0,NNE,16.1,23.0,N/A,,Clear,30,2012-10-23 12:53:00
5:53 AM,35.1,14.0,42,30.25,10.0,NNE,12.7,21.9,N/A,,Scattered Clouds,30,2012-10-23 13:53:00
6:53 AM,35.1,14.0,42,30.26,10.0,NE,18.4,24.2,N/A,,Mostly Cloudy,40,2012-10-23 14:53:00
7:53 AM,34.0,14.0,44,30.27,10.0,NNE,15.0,25.3,N/A,,Partly Cloudy,20,2012-10-23 15:53:00
8:53 AM,35.1,14.0,42,30.27,10.0,NE,16.1,28.8,N/A,,Mostly Cloudy,40,2012-10-23 16:53:00
9:53 AM,35.1,14.0,42,30.27,10.0,NE,24.2,33.4,N/A,,Overcast,40,2012-10-23 17:53:00
10:53 AM,35.1,14.0,42,30.27,10.0,NE,23.0,32.2,N/A,,Overcast,40,2012-10-23 18:53:00
11:53 AM,37.9,14.0,38,30.27,10.0,NE,21.9,29.9,N/A,,Partly Cloudy,40,2012-10-23 19:53:00
12:53 PM,39.0,14.0,36,30.26,10.0,NNE,21.9,33.4,N/A,,Clear,30,2012-10-23 20:53:00
1:53 PM,39.0,14.0,36,30.27,10.0,NE,19.6,27.6,N/A,,Clear,40,2012-10-23 21:53:00
2:53 PM,39.9,15.1,36,30.27,10.0,NNE,12.7,-,N/A,,Scattered Clouds,30,2012-10-23 22:53:00
3:53 PM,39.0,15.1,38,30.27,10.0,NNE,9.2,18.4,N/A,,Mostly Cloudy,20,2012-10-23 23:53:00
4:53 PM,37.9,15.1,39,30.27,10.0,NNE,9.2,-,N/A,,Overcast,20,2012-10-24 00:53:00
5:53 PM,37.0,16.0,42,30.27,10.0,NNE,8.1,-,N/A,,Overcast,20,2012-10-24 01:53:00
6:53 PM,37.0,15.1,41,30.28,10.0,NNE,10.4,-,N/A,,Overcast,20,2012-10-24 02:53:00
7:53 PM,37.0,16.0,42,30.29,10.0,NNE,10.4,-,N/A,,Overcast,20,2012-10-24 03:53:00
8:53 PM,37.0,16.0,42,30.30,10.0,NNE,13.8,-,N/A,,Overcast,30,2012-10-24 04:53:00
9:53 PM,37.0,15.1,41,30.30,10.0,NNE,10.4,-,N/A,,Overcast,20,2012-10-24 05:53:00
10:53 PM,36.0,15.1,43,30.31,10.0,NNE,9.2,24.2,N/A,,Overcast,20,2012-10-24 06:53:00
11:53 PM,35.1,15.1,44,30.32,10.0,NNE,11.5,-,N/A,,Overcast,30,2012-10-24 07:53:00